Location: Flotzheim
(48.8375°N, 10.8136°E)
Time: 04:40:44
(UTC+00:00)

FengYun 1-2 T - Pass Details

Date: 23 January 2021
Orbit: 847 x 881 km, 98.7° (Epoch: 26 February)

Event Time Altitude Azimuth Distance (km) Brightness Sun altitude
Rises 16:29:59 0° 155° (SSE) 3,427 7.4 -5.2°
Reaches altitude 10° 16:32:21 10° 153° (SSE) 2,499 6.6 -5.6°
Maximum altitude 16:37:52 70° 71° (ENE) 929 4.3 -6.4°
Drops below altitude 10° 16:43:28 10° 349° (N) 2,538 6.6 -7.3°
Sets 16:45:53 0° 348° (NNW) 3,484 7.3 -7.6°
